| time (UTC) | temp C | wind direction | speed KPH | gust KPH | rain 1hr cm | rain 24hr cm | rain mn cm | humidity % | barometer mb |
| 20260510045013 | 14 | 63 | 0.0 | 0.0 | 0.00 | 0.00 | 0.00 | 90 | 1013.1 |
| 20260510044510 | 14 | 63 | 0.0 | 0.0 | 0.00 | 0.00 | 0.00 | 89 | 1012.9 |
| 20260510044008 | 15 | 63 | 0.0 | 0.0 | 0.00 | 0.00 | 0.00 | 88 | 1012.7 |
| 20260510043502 | 15 | 63 | 0.0 | 0.0 | 0.00 | 0.00 | 0.00 | 89 | 1012.7 |
| 20260510043001 | 14 | 63 | 0.0 | 0.0 | 0.00 | 0.00 | 0.00 | 89 | 1012.7 |
| 20260510042457 | 14 | 63 | 0.0 | 1.6 | 0.00 | 0.00 | 0.00 | 90 | 1012.6 |
| 20260510041952 | 15 | 63 | 3.2 | 3.2 | 0.00 | 0.00 | 0.00 | 89 | 1012.4 |
| 20260510041450 | 15 | 63 | 1.6 | 3.2 | 0.00 | 0.00 | 0.00 | 88 | 1012.4 |
| 20260510040948 | 15 | 64 | 0.0 | 0.0 | 0.00 | 0.00 | 0.00 | 87 | 1012.6 |
| 20260510040444 | 15 | 64 | 0.0 | 0.0 | 0.00 | 0.00 | 0.00 | 88 | 1012.4 |
| 20260510035940 | 15 | 63 | 0.0 | 0.0 | 0.00 | 0.00 | 0.00 | 88 | 1012.8 |
| 20260510035436 | 15 | 63 | 0.0 | 0.0 | 0.00 | 0.00 | 0.00 | 88 | 1012.8 |
| 20260510034936 | 15 | 63 | 0.0 | 0.0 | 0.00 | 0.00 | 0.00 | 87 | 1012.8 |
| 20260510034435 | 15 | 63 | 1.6 | 1.6 | 0.00 | 0.00 | 0.00 | 87 | 1012.8 |
| 20260510033931 | 15 | 64 | 0.0 | 0.0 | 0.00 | 0.00 | 0.00 | 85 | 1012.3 |
| 20260510033427 | 15 | 61 | 0.0 | 0.0 | 0.00 | 0.00 | 0.00 | 85 | 1012.1 |
| 20260510032924 | 16 | 63 | 0.0 | 0.0 | 0.00 | 0.00 | 0.00 | 83 | 1011.9 |
| 20260510032421 | 16 | 63 | 0.0 | 0.0 | 0.00 | 0.00 | 0.00 | 81 | 1011.9 |
| 20260510031916 | 16 | 63 | 0.0 | 0.0 | 0.00 | 0.00 | 0.00 | 78 | 1011.8 |
| 20260510031413 | 16 | 63 | 0.0 | 0.0 | 0.00 | 0.00 | 0.00 | 78 | 1011.8 |
| 20260510030913 | 17 | 61 | 0.0 | 0.0 | 0.00 | 0.00 | 0.00 | 76 | 1011.6 |
| 20260510030409 | 17 | 61 | 0.0 | 0.0 | 0.00 | 0.00 | 0.00 | 75 | 1011.6 |
| 20260510025907 | 17 | 61 | 0.0 | 0.0 | 0.00 | 0.00 | 0.00 | 74 | 1011.3 |
| 20260510025404 | 17 | 56 | 0.0 | 0.0 | 0.00 | 0.00 | 0.00 | 74 | 1011.4 |
| 20260510024901 | 17 | 63 | 0.0 | 0.0 | 0.00 | 0.00 | 0.00 | 72 | 1011.5 |
| 20260510024358 | 18 | 63 | 0.0 | 0.0 | 0.00 | 0.00 | 0.00 | 71 | 1011.4 |
| 20260510023853 | 18 | 61 | 0.0 | 0.0 | 0.00 | 0.00 | 0.00 | 70 | 1011.2 |
| 20260510023350 | 19 | 56 | 0.0 | 0.0 | 0.00 | 0.00 | 0.00 | 67 | 1011.1 |
| 20260510022848 | 19 | 64 | 0.0 | 0.0 | 0.00 | 0.00 | 0.00 | 65 | 1011.1 |
| 20260510022347 | 19 | 64 | 0.0 | 0.0 | 0.00 | 0.00 | 0.00 | 66 | 1010.9 |
| 20260510021845 | 19 | 63 | 1.6 | 1.6 | 0.00 | 0.00 | 0.00 | 65 | 1010.7 |
| 20260510021344 | 19 | 61 | 0.0 | 0.0 | 0.00 | 0.00 | 0.00 | 64 | 1010.8 |
| 20260510020840 | 20 | 60 | 0.0 | 0.0 | 0.00 | 0.00 | 0.00 | 64 | 1010.7 |
| 20260510020335 | 20 | 64 | 0.0 | 0.0 | 0.00 | 0.00 | 0.00 | 63 | 1010.5 |
| 20260510015831 | 20 | 63 | 0.0 | 0.0 | 0.00 | 0.00 | 0.00 | 64 | 1010.5 |
| 20260510015327 | 20 | 65 | 0.0 | 0.0 | 0.00 | 0.00 | 0.00 | 63 | 1010.4 |
| 20260510014822 | 20 | 55 | 1.6 | 1.6 | 0.00 | 0.00 | 0.00 | 62 | 1010.2 |
| 20260510014320 | 21 | 98 | 1.6 | 1.6 | 0.00 | 0.00 | 0.00 | 60 | 1010.1 |
| 20260510013816 | 20 | 102 | 1.6 | 1.6 | 0.00 | 0.00 | 0.00 | 61 | 1010.1 |
| 20260510013311 | 21 | 125 | 1.6 | 1.6 | 0.00 | 0.00 | 0.00 | 60 | 1010.2 |
| 20260510012806 | 22 | 151 | 0.0 | 0.0 | 0.00 | 0.00 | 0.00 | 55 | 1009.9 |
| 20260510012300 | 22 | 151 | 0.0 | 0.0 | 0.00 | 0.00 | 0.00 | 54 | 1010.0 |
| 20260510011755 | 22 | 152 | 0.0 | 1.6 | 0.00 | 0.00 | 0.00 | 55 | 1009.8 |
| 20260510011251 | 22 | 128 | 1.6 | 1.6 | 0.00 | 0.00 | 0.00 | 56 | 1009.7 |
| 20260510010748 | 22 | 157 | 1.6 | 1.6 | 0.00 | 0.00 | 0.00 | 55 | 1009.7 |
| 20260510010244 | 23 | 121 | 1.6 | 3.2 | 0.00 | 0.00 | 0.00 | 54 | 1009.7 |
| 20260510005742 | 23 | 148 | 0.0 | 1.6 | 0.00 | 0.00 | 0.00 | 51 | 1009.7 |
| 20260510005238 | 23 | 114 | 0.0 | 0.0 | 0.00 | 0.00 | 0.00 | 50 | 1009.6 |
| 20260510004736 | 24 | 125 | 0.0 | 1.6 | 0.00 | 0.00 | 0.00 | 48 | 1009.3 |
| 20260510004233 | 25 | 125 | 0.0 | 1.6 | 0.00 | 0.00 | 0.00 | 48 | 1009.3 |
| 20260510003731 | 25 | 141 | 0.0 | 0.0 | 0.00 | 0.00 | 0.00 | 49 | 1009.2 |
| 20260510003227 | 25 | 140 | 0.0 | 0.0 | 0.00 | 0.00 | 0.00 | 45 | 1009.3 |
| 20260510002725 | 26 | 158 | 0.0 | 0.0 | 0.00 | 0.00 | 0.00 | 44 | 1009.2 |
| 20260510002223 | 26 | 155 | 0.0 | 0.0 | 0.00 | 0.00 | 0.00 | 41 | 1009.2 |
| 20260510001720 | 26 | 184 | 0.0 | 0.0 | 0.00 | 0.00 | 0.00 | 42 | 1009.3 |
| 20260510001218 | 26 | 137 | 1.6 | 3.2 | 0.00 | 0.00 | 0.00 | 41 | 1009.2 |
| 20260510000714 | 27 | 68 | 1.6 | 1.6 | 0.00 | 0.00 | 0.00 | 38 | 1009.2 |
| 20260510000212 | 26 | 68 | 0.0 | 0.0 | 0.00 | 0.00 | 0.00 | 37 | 1009.2 |
| 20260509235708 | 26 | 71 | 0.0 | 0.0 | 0.00 | 0.00 | 0.00 | 36 | 1009.3 |
| 20260509235204 | 26 | 46 | 1.6 | 1.6 | 0.00 | 0.00 | 0.00 | 35 | 1009.6 |
| 20260509234701 | 27 | 73 | 1.6 | 3.2 | 0.00 | 0.00 | 0.00 | 35 | 1009.1 |
| 20260509234158 | 27 | 54 | 3.2 | 4.8 | 0.00 | 0.00 | 0.00 | 35 | 1009.4 |
| 20260509233656 | 27 | 78 | 0.0 | 0.0 | 0.00 | 0.00 | 0.00 | 36 | 1009.4 |
| 20260509233153 | 27 | 51 | 1.6 | 3.2 | 0.00 | 0.00 | 0.00 | 35 | 1009.6 |
| 20260509232649 | 27 | 41 | 3.2 | 3.2 | 0.00 | 0.00 | 0.00 | 31 | 1009.6 |
| 20260509232146 | 28 | 29 | 1.6 | 3.2 | 0.00 | 0.00 | 0.00 | 31 | 1009.6 |
| 20260509231643 | 28 | 0 | 0.0 | 1.6 | 0.00 | 0.00 | 0.00 | 28 | 1009.7 |
| 20260509231140 | 28 | 61 | 1.6 | 1.6 | 0.00 | 0.00 | 0.00 | 28 | 1009.8 |
| 20260509230637 | 28 | 86 | 1.6 | 1.6 | 0.00 | 0.00 | 0.00 | 29 | 1009.7 |
| 20260509230134 | 28 | 63 | 0.0 | 0.0 | 0.00 | 0.00 | 0.00 | 30 | 1009.6 |
| 20260509225630 | 28 | 48 | 1.6 | 3.2 | 0.00 | 0.00 | 0.00 | 30 | 1009.6 |
| 20260509225125 | 27 | 115 | 1.6 | 1.6 | 0.00 | 0.00 | 0.00 | 30 | 1009.4 |
| 20260509224621 | 28 | 44 | 4.8 | 4.8 | 0.00 | 0.00 | 0.00 | 28 | 1009.6 |
| 20260509224118 | 27 | 29 | 1.6 | 3.2 | 0.00 | 0.00 | 0.00 | 28 | 1009.8 |
| 20260509223615 | 27 | 30 | 3.2 | 4.8 | 0.00 | 0.00 | 0.00 | 30 | 1009.7 |
| 20260509223113 | 27 | 67 | 1.6 | 3.2 | 0.00 | 0.00 | 0.00 | 31 | 1009.7 |
| 20260509222608 | 28 | 35 | 3.2 | 3.2 | 0.00 | 0.00 | 0.00 | 32 | 1009.7 |
| 20260509222105 | 29 | 170 | 3.2 | 3.2 | 0.00 | 0.00 | 0.00 | 30 | 1009.8 |
| 20260509221600 | 28 | 185 | 1.6 | 1.6 | 0.00 | 0.00 | 0.00 | 28 | 1009.8 |
| 20260509221057 | 28 | 154 | 1.6 | 3.2 | 0.00 | 0.00 | 0.00 | 31 | 1009.8 |
| 20260509220552 | 28 | 198 | 0.0 | 1.6 | 0.00 | 0.00 | 0.00 | 29 | 1009.7 |
| 20260509220049 | 28 | 148 | 4.8 | 4.8 | 0.00 | 0.00 | 0.00 | 27 | 1009.8 |
| 20260509215544 | 28 | 135 | 3.2 | 3.2 | 0.00 | 0.00 | 0.00 | 25 | 1009.7 |
| 20260509215042 | 28 | 78 | 6.4 | 6.4 | 0.00 | 0.00 | 0.00 | 29 | 1009.8 |
| 20260509214539 | 29 | 73 | 0.0 | 0.0 | 0.00 | 0.00 | 0.00 | 28 | 1009.9 |
| 20260509214036 | 28 | 218 | 0.0 | 0.0 | 0.00 | 0.00 | 0.00 | 29 | 1009.8 |
| 20260509213532 | 29 | 21 | 3.2 | 4.8 | 0.00 | 0.00 | 0.00 | 30 | 1009.8 |
| 20260509213029 | 28 | 18 | 0.0 | 0.0 | 0.00 | 0.00 | 0.00 | 30 | 1010.0 |
| 20260509212526 | 30 | 60 | 3.2 | 6.4 | 0.00 | 0.00 | 0.00 | 31 | 1009.9 |
| 20260509212023 | 28 | 18 | 0.0 | 0.0 | 0.00 | 0.00 | 0.00 | 28 | 1009.9 |
| 20260509211518 | 28 | 154 | 3.2 | 4.8 | 0.00 | 0.00 | 0.00 | 28 | 1009.9 |
| 20260509211016 | 29 | 68 | 1.6 | 1.6 | 0.00 | 0.00 | 0.00 | 28 | 1009.9 |
| 20260509210512 | 28 | 65 | 9.7 | 11.3 | 0.00 | 0.00 | 0.00 | 31 | 1010.2 |
| 20260509210009 | 29 | 148 | 3.2 | 4.8 | 0.00 | 0.00 | 0.00 | 29 | 1010.1 |
| 20260509205503 | 30 | 163 | 1.6 | 1.6 | 0.00 | 0.00 | 0.00 | 27 | 1010.2 |
| 20260509204958 | 30 | 275 | 1.6 | 1.6 | 0.00 | 0.00 | 0.00 | 26 | 1010.3 |
| 20260509204455 | 28 | 35 | 4.8 | 6.4 | 0.00 | 0.00 | 0.00 | 29 | 1010.1 |
| 20260509203951 | 28 | 96 | 3.2 | 4.8 | 0.00 | 0.00 | 0.00 | 30 | 1010.2 |
| 20260509203447 | 29 | 182 | 0.0 | 0.0 | 0.00 | 0.00 | 0.00 | 27 | 1010.5 |
| 20260509202945 | 30 | 71 | 1.6 | 1.6 | 0.00 | 0.00 | 0.00 | 26 | 1010.4 |
| 20260509202441 | 28 | 219 | 3.2 | 3.2 | 0.00 | 0.00 | 0.00 | 30 | 1010.6 |
| 20260509201936 | 30 | 44 | 4.8 | 4.8 | 0.00 | 0.00 | 0.00 | 26 | 1010.6 |
| 20260509201431 | 29 | 166 | 3.2 | 3.2 | 0.00 | 0.00 | 0.00 | 31 | 1010.4 |
| 20260509200929 | 31 | 10 | 0.0 | 3.2 | 0.00 | 0.00 | 0.00 | 27 | 1010.5 |
| 20260509200428 | 30 | 261 | 0.0 | 0.0 | 0.00 | 0.00 | 0.00 | 24 | 1010.6 |
| 20260509195925 | 30 | 42 | 3.2 | 3.2 | 0.00 | 0.00 | 0.00 | 28 | 1010.8 |
| 20260509195421 | 28 | 128 | 0.0 | 1.6 | 0.00 | 0.00 | 0.00 | 29 | 1010.8 |
| 20260509194920 | 29 | 8 | 1.6 | 3.2 | 0.00 | 0.00 | 0.00 | 30 | 1011.0 |
| 20260509194416 | 30 | 52 | 3.2 | 3.2 | 0.00 | 0.00 | 0.00 | 29 | 1010.7 |
| 20260509193914 | 30 | 142 | 1.6 | 3.2 | 0.00 | 0.00 | 0.00 | 28 | 1010.8 |
| 20260509193413 | 30 | 178 | 0.0 | 0.0 | 0.00 | 0.00 | 0.00 | 27 | 1010.7 |
| 20260509192909 | 30 | 266 | 1.6 | 1.6 | 0.00 | 0.00 | 0.00 | 31 | 1010.7 |
| 20260509192405 | 30 | 233 | 1.6 | 3.2 | 0.00 | 0.00 | 0.00 | 36 | 1010.7 |
| 20260509191901 | 30 | 264 | 1.6 | 3.2 | 0.00 | 0.00 | 0.00 | 31 | 1010.9 |
| 20260509191357 | 29 | 6 | 6.4 | 9.7 | 0.00 | 0.00 | 0.00 | 34 | 1010.9 |
| 20260509190853 | 30 | 204 | 3.2 | 3.2 | 0.00 | 0.00 | 0.00 | 32 | 1010.7 |
| 20260509190350 | 29 | 241 | 0.0 | 1.6 | 0.00 | 0.00 | 0.00 | 31 | 1011.0 |
| 20260509185848 | 30 | 56 | 6.4 | 9.7 | 0.00 | 0.00 | 0.00 | 33 | 1010.8 |
| 20260509185344 | 30 | 300 | 3.2 | 6.4 | 0.00 | 0.00 | 0.00 | 31 | 1010.9 |
| 20260509184841 | 30 | 212 | 0.0 | 0.0 | 0.00 | 0.00 | 0.00 | 32 | 1011.0 |
| 20260509184338 | 28 | 61 | 1.6 | 3.2 | 0.00 | 0.00 | 0.00 | 32 | 1011.2 |
| 20260509183835 | 31 | 37 | 1.6 | 1.6 | 0.00 | 0.00 | 0.00 | 30 | 1011.1 |
| 20260509183330 | 30 | 291 | 0.0 | 1.6 | 0.00 | 0.00 | 0.00 | 30 | 1011.1 |
| 20260509182826 | 30 | 86 | 1.6 | 3.2 | 0.00 | 0.00 | 0.00 | 30 | 1011.0 |
| 20260509182323 | 31 | 285 | 3.2 | 3.2 | 0.00 | 0.00 | 0.00 | 29 | 1011.1 |
| 20260509181821 | 29 | 282 | 1.6 | 1.6 | 0.00 | 0.00 | 0.00 | 31 | 1011.2 |
| 20260509181318 | 28 | 262 | 0.0 | 1.6 | 0.00 | 0.00 | 0.00 | 37 | 1011.1 |
| 20260509180815 | 27 | 252 | 1.6 | 1.6 | 0.00 | 0.00 | 0.00 | 36 | 1011.2 |
| 20260509180311 | 27 | 154 | 3.2 | 4.8 | 0.00 | 0.00 | 0.00 | 39 | 1011.1 |
| 20260509175808 | 27 | 204 | 0.0 | 1.6 | 0.00 | 0.00 | 0.00 | 36 | 1011.1 |
| 20260509175306 | 27 | 188 | 3.2 | 4.8 | 0.00 | 0.00 | 0.00 | 39 | 1011.2 |
| 20260509174800 | 28 | 57 | 0.0 | 0.0 | 0.00 | 0.00 | 0.00 | 31 | 1011.2 |
| 20260509174256 | 30 | 19 | 3.2 | 4.8 | 0.00 | 0.00 | 0.00 | 33 | 1011.5 |
| 20260509173752 | 30 | 26 | 0.0 | 1.6 | 0.00 | 0.00 | 0.00 | 33 | 1011.4 |
| 20260509173247 | 31 | 219 | 0.0 | 0.0 | 0.00 | 0.00 | 0.00 | 38 | 1011.4 |
| 20260509172744 | 29 | 71 | 1.6 | 3.2 | 0.00 | 0.00 | 0.00 | 40 | 1011.5 |
| 20260509172241 | 27 | 283 | 1.6 | 3.2 | 0.00 | 0.00 | 0.00 | 48 | 1011.4 |
| 20260509171736 | 27 | 254 | 4.8 | 6.4 | 0.00 | 0.00 | 0.00 | 50 | 1011.6 |
| 20260509171233 | 29 | 279 | 3.2 | 4.8 | 0.00 | 0.00 | 0.00 | 47 | 1011.4 |
| 20260509170729 | 27 | 350 | 3.2 | 3.2 | 0.00 | 0.00 | 0.00 | 47 | 1011.4 |
| 20260509170225 | 27 | 45 | 3.2 | 4.8 | 0.00 | 0.00 | 0.00 | 50 | 1011.6 |
| 20260509165724 | 28 | 61 | 0.0 | 0.0 | 0.00 | 0.00 | 0.00 | 48 | 1011.5 |
| 20260509165219 | 28 | 58 | 1.6 | 3.2 | 0.00 | 0.00 | 0.00 | 48 | 1011.6 |
| 20260509164715 | 27 | 326 | 3.2 | 3.2 | 0.00 | 0.00 | 0.00 | 48 | 1011.5 |
| 20260509164211 | 25 | 248 | 0.0 | 0.0 | 0.00 | 0.00 | 0.00 | 54 | 1011.5 |
| 20260509163709 | 26 | 257 | 3.2 | 4.8 | 0.00 | 0.00 | 0.00 | 53 | 1011.5 |
| 20260509163205 | 27 | 255 | 1.6 | 1.6 | 0.00 | 0.00 | 0.00 | 53 | 1011.6 |
| 20260509162703 | 26 | 70 | 4.8 | 4.8 | 0.00 | 0.00 | 0.00 | 56 | 1011.6 |
| 20260509162158 | 26 | 275 | 1.6 | 1.6 | 0.00 | 0.00 | 0.00 | 51 | 1011.8 |
| 20260509161654 | 25 | 344 | 1.6 | 1.6 | 0.00 | 0.00 | 0.00 | 54 | 1011.8 |
| 20260509161150 | 24 | 359 | 1.6 | 4.8 | 0.00 | 0.00 | 0.00 | 58 | 1011.8 |
| 20260509160645 | 24 | 250 | 1.6 | 1.6 | 0.00 | 0.00 | 0.00 | 60 | 1011.8 |
| 20260509160141 | 26 | 274 | 3.2 | 4.8 | 0.00 | 0.00 | 0.00 | 63 | 1011.7 |
| 20260509155638 | 24 | 325 | 3.2 | 3.2 | 0.00 | 0.00 | 0.00 | 64 | 1011.8 |
| 20260509155134 | 23 | 218 | 0.0 | 0.0 | 0.00 | 0.00 | 0.00 | 68 | 1011.9 |
| 20260509154630 | 23 | 238 | 0.0 | 1.6 | 0.00 | 0.00 | 0.00 | 68 | 1011.9 |
| 20260509154127 | 23 | 276 | 1.6 | 1.6 | 0.00 | 0.00 | 0.00 | 71 | 1011.8 |
| 20260509153624 | 23 | 287 | 6.4 | 6.4 | 0.00 | 0.00 | 0.00 | 68 | 1011.7 |
| 20260509153121 | 24 | 230 | 1.6 | 3.2 | 0.00 | 0.00 | 0.00 | 73 | 1011.7 |
| 20260509152616 | 24 | 279 | 0.0 | 0.0 | 0.00 | 0.00 | 0.00 | 69 | 1011.7 |
| 20260509152114 | 22 | 278 | 0.0 | 0.0 | 0.00 | 0.00 | 0.00 | 70 | 1011.6 |
| 20260509151610 | 22 | 299 | 4.8 | 4.8 | 0.00 | 0.00 | 0.00 | 76 | 1011.6 |
| 20260509151108 | 22 | 210 | 4.8 | 4.8 | 0.00 | 0.00 | 0.00 | 78 | 1011.6 |
| 20260509150606 | 22 | 268 | 3.2 | 3.2 | 0.00 | 0.00 | 0.00 | 76 | 1011.7 |
| 20260509150104 | 21 | 210 | 1.6 | 1.6 | 0.00 | 0.00 | 0.00 | 78 | 1011.7 |
| 20260509145559 | 21 | 265 | 3.2 | 4.8 | 0.00 | 0.00 | 0.00 | 79 | 1011.7 |
| 20260509145055 | 22 | 268 | 3.2 | 3.2 | 0.00 | 0.00 | 0.00 | 74 | 1011.6 |
| 20260509144552 | 21 | 200 | 0.0 | 0.0 | 0.00 | 0.00 | 0.00 | 76 | 1011.7 |
| 20260509144049 | 20 | 149 | 0.0 | 0.0 | 0.00 | 0.00 | 0.00 | 77 | 1011.6 |
| 20260509143546 | 21 | 215 | 3.2 | 3.2 | 0.00 | 0.00 | 0.00 | 76 | 1011.5 |
| 20260509143044 | 21 | 204 | 1.6 | 1.6 | 0.00 | 0.00 | 0.00 | 77 | 1011.7 |
| 20260509142538 | 21 | 202 | 0.0 | 1.6 | 0.00 | 0.00 | 0.00 | 77 | 1011.7 |
| 20260509142035 | 22 | 178 | 1.6 | 3.2 | 0.00 | 0.00 | 0.00 | 71 | 1011.5 |
| 20260509141531 | 22 | 145 | 0.0 | 0.0 | 0.00 | 0.00 | 0.00 | 73 | 1011.4 |
| 20260509141028 | 20 | 145 | 0.0 | 0.0 | 0.00 | 0.00 | 0.00 | 77 | 1011.6 |
| 20260509140525 | 20 | 144 | 0.0 | 0.0 | 0.00 | 0.00 | 0.00 | 77 | 1011.5 |
| 20260509140023 | 18 | 144 | 0.0 | 1.6 | 0.00 | 0.00 | 0.00 | 84 | 1011.4 |
| 20260509135520 | 18 | 143 | 0.0 | 0.0 | 0.00 | 0.00 | 0.00 | 80 | 1011.4 |
| 20260509135017 | 17 | 162 | 0.0 | 0.0 | 0.00 | 0.00 | 0.00 | 85 | 1011.2 |
| 20260509134514 | 16 | 131 | 0.0 | 0.0 | 0.00 | 0.00 | 0.00 | 88 | 1011.3 |
| 20260509134012 | 15 | 118 | 1.6 | 1.6 | 0.00 | 0.00 | 0.00 | 90 | 1011.0 |
| 20260509133508 | 15 | 116 | 3.2 | 4.8 | 0.00 | 0.00 | 0.00 | 91 | 1011.0 |
| 20260509133007 | 14 | 264 | 1.6 | 3.2 | 0.00 | 0.00 | 0.00 | 94 | 1011.1 |
| 20260509132504 | 15 | 265 | 0.0 | 0.0 | 0.00 | 0.00 | 0.00 | 96 | 1011.2 |
| 20260509132001 | 15 | 265 | 0.0 | 0.0 | 0.00 | 0.00 | 0.00 | 96 | 1011.1 |
| 20260509131458 | 14 | 265 | 0.0 | 0.0 | 0.00 | 0.00 | 0.00 | 96 | 1011.2 |
| 20260509130955 | 13 | 264 | 0.0 | 0.0 | 0.00 | 0.00 | 0.00 | 96 | 1011.1 |
| 20260509130450 | 12 | 264 | 0.0 | 0.0 | 0.00 | 0.00 | 0.00 | 96 | 1011.1 |
| 20260509125948 | 11 | 264 | 0.0 | 0.0 | 0.00 | 0.00 | 0.00 | 96 | 1011.1 |
| 20260509125444 | 12 | 264 | 0.0 | 0.0 | 0.00 | 0.00 | 0.00 | 96 | 1011.0 |
| 20260509124940 | 12 | 264 | 0.0 | 0.0 | 0.00 | 0.00 | 0.00 | 96 | 1010.9 |
| 20260509124437 | 11 | 264 | 0.0 | 0.0 | 0.00 | 0.00 | 0.00 | 97 | 1010.8 |
| 20260509123934 | 11 | 264 | 0.0 | 0.0 | 0.00 | 0.00 | 0.00 | 97 | 1011.0 |
| 20260509123432 | 11 | 264 | 0.0 | 0.0 | 0.00 | 0.00 | 0.00 | 97 | 1010.8 |
| 20260509122928 | 10 | 264 | 0.0 | 0.0 | 0.00 | 0.00 | 0.00 | 97 | 1010.9 |
| 20260509122425 | 10 | 264 | 1.6 | 1.6 | 0.00 | 0.00 | 0.00 | 97 | 1010.7 |
| 20260509121921 | 10 | 264 | 0.0 | 0.0 | 0.00 | 0.00 | 0.00 | 97 | 1010.8 |
| 20260509121418 | 10 | 264 | 0.0 | 0.0 | 0.00 | 0.00 | 0.00 | 97 | 1010.7 |
| 20260509120917 | 10 | 264 | 0.0 | 0.0 | 0.00 | 0.00 | 0.00 | 97 | 1010.5 |
| 20260509120414 | 10 | 264 | 1.6 | 1.6 | 0.00 | 0.00 | 0.00 | 97 | 1010.6 |
| 20260509115912 | 10 | 264 | 0.0 | 0.0 | 0.00 | 0.00 | 0.00 | 97 | 1010.4 |
| 20260509115409 | 10 | 263 | 0.0 | 0.0 | 0.00 | 0.00 | 0.00 | 97 | 1010.4 |
| 20260509114906 | 10 | 263 | 0.0 | 0.0 | 0.00 | 0.00 | 0.00 | 97 | 1010.2 |
| 20260509114405 | 10 | 264 | 0.0 | 0.0 | 0.00 | 0.00 | 0.00 | 97 | 1010.2 |
| 20260509113904 | 10 | 264 | 0.0 | 0.0 | 0.00 | 0.00 | 0.00 | 97 | 1010.1 |
| 20260509113401 | 10 | 264 | 0.0 | 0.0 | 0.00 | 0.00 | 0.00 | 97 | 1010.2 |
| 20260509112857 | 10 | 264 | 0.0 | 0.0 | 0.00 | 0.00 | 0.00 | 97 | 1010.3 |
| 20260509112354 | 10 | 264 | 0.0 | 0.0 | 0.00 | 0.00 | 0.00 | 97 | 1010.1 |
| 20260509111852 | 10 | 264 | 0.0 | 0.0 | 0.00 | 0.00 | 0.00 | 96 | 1010.1 |
| 20260509111348 | 10 | 264 | 0.0 | 0.0 | 0.00 | 0.00 | 0.00 | 96 | 1010.1 |
| 20260509110846 | 10 | 264 | 1.6 | 1.6 | 0.00 | 0.00 | 0.00 | 96 | 1010.2 |
| 20260509110342 | 10 | 264 | 0.0 | 0.0 | 0.00 | 0.00 | 0.00 | 96 | 1010.1 |
| 20260509105841 | 10 | 264 | 0.0 | 0.0 | 0.00 | 0.00 | 0.00 | 96 | 1009.9 |
| 20260509105338 | 10 | 264 | 0.0 | 0.0 | 0.00 | 0.00 | 0.00 | 96 | 1009.9 |
| 20260509104835 | 10 | 264 | 0.0 | 0.0 | 0.00 | 0.00 | 0.00 | 96 | 1009.8 |
| 20260509104331 | 10 | 264 | 0.0 | 0.0 | 0.00 | 0.00 | 0.00 | 96 | 1009.8 |
| 20260509103829 | 10 | 264 | 0.0 | 0.0 | 0.00 | 0.00 | 0.00 | 96 | 1010.0 |
| 20260509103326 | 10 | 264 | 0.0 | 0.0 | 0.00 | 0.00 | 0.00 | 96 | 1009.9 |
| 20260509102825 | 10 | 264 | 0.0 | 0.0 | 0.00 | 0.00 | 0.00 | 96 | 1010.0 |
| 20260509102322 | 10 | 264 | 0.0 | 0.0 | 0.00 | 0.00 | 0.00 | 96 | 1009.9 |
| 20260509101818 | 10 | 264 | 0.0 | 0.0 | 0.00 | 0.00 | 0.00 | 96 | 1010.0 |
| 20260509101314 | 10 | 264 | 0.0 | 0.0 | 0.00 | 0.00 | 0.00 | 96 | 1009.8 |
| 20260509100812 | 10 | 264 | 0.0 | 0.0 | 0.00 | 0.00 | 0.00 | 96 | 1009.8 |
| 20260509100309 | 10 | 264 | 0.0 | 0.0 | 0.00 | 0.00 | 0.00 | 96 | 1009.8 |
| 20260509095805 | 10 | 264 | 0.0 | 0.0 | 0.00 | 0.00 | 0.00 | 96 | 1009.9 |
| 20260509095305 | 10 | 264 | 0.0 | 0.0 | 0.00 | 0.00 | 0.00 | 96 | 1009.7 |
| 20260509094800 | 10 | 264 | 0.0 | 0.0 | 0.00 | 0.00 | 0.00 | 96 | 1009.8 |
| 20260509094256 | 10 | 264 | 0.0 | 0.0 | 0.00 | 0.00 | 0.00 | 96 | 1010.1 |
| 20260509093754 | 10 | 264 | 0.0 | 0.0 | 0.00 | 0.00 | 0.00 | 96 | 1010.0 |
| 20260509093251 | 11 | 264 | 0.0 | 0.0 | 0.00 | 0.00 | 0.00 | 96 | 1010.0 |
| 20260509092750 | 11 | 264 | 0.0 | 0.0 | 0.00 | 0.00 | 0.00 | 96 | 1010.1 |
| 20260509092247 | 11 | 264 | 0.0 | 0.0 | 0.00 | 0.00 | 0.00 | 96 | 1009.8 |
| 20260509091745 | 11 | 264 | 0.0 | 0.0 | 0.00 | 0.00 | 0.00 | 96 | 1010.0 |
| 20260509091241 | 11 | 264 | 0.0 | 0.0 | 0.00 | 0.00 | 0.00 | 96 | 1010.1 |
| 20260509090739 | 11 | 264 | 1.6 | 1.6 | 0.00 | 0.00 | 0.00 | 96 | 1010.1 |
| 20260509090236 | 11 | 264 | 1.6 | 1.6 | 0.00 | 0.00 | 0.00 | 96 | 1010.0 |
| 20260509085733 | 11 | 264 | 0.0 | 0.0 | 0.00 | 0.00 | 0.00 | 96 | 1009.9 |
| 20260509085231 | 11 | 264 | 0.0 | 0.0 | 0.00 | 0.00 | 0.00 | 96 | 1010.0 |
| 20260509084727 | 11 | 264 | 0.0 | 0.0 | 0.00 | 0.00 | 0.00 | 96 | 1010.2 |
| 20260509084224 | 11 | 263 | 0.0 | 0.0 | 0.00 | 0.00 | 0.00 | 96 | 1010.2 |
| 20260509083722 | 11 | 263 | 0.0 | 0.0 | 0.00 | 0.00 | 0.00 | 96 | 1010.2 |
| 20260509083218 | 11 | 263 | 0.0 | 0.0 | 0.00 | 0.00 | 0.00 | 96 | 1010.2 |
| 20260509082715 | 11 | 263 | 0.0 | 0.0 | 0.00 | 0.00 | 0.00 | 96 | 1010.4 |
| 20260509082212 | 11 | 263 | 0.0 | 0.0 | 0.00 | 0.00 | 0.00 | 96 | 1010.4 |
| 20260509081708 | 11 | 263 | 0.0 | 0.0 | 0.00 | 0.00 | 0.00 | 96 | 1010.5 |
| 20260509081206 | 11 | 263 | 0.0 | 0.0 | 0.00 | 0.00 | 0.00 | 96 | 1010.5 |
| 20260509080704 | 11 | 263 | 0.0 | 0.0 | 0.00 | 0.00 | 0.00 | 96 | 1010.4 |
| 20260509080201 | 11 | 263 | 0.0 | 0.0 | 0.00 | 0.00 | 0.00 | 96 | 1010.7 |
| 20260509075659 | 11 | 263 | 0.0 | 0.0 | 0.00 | 0.00 | 0.00 | 96 | 1010.7 |
| 20260509075157 | 11 | 263 | 0.0 | 0.0 | 0.00 | 0.00 | 0.00 | 96 | 1010.7 |
| 20260509074654 | 12 | 263 | 0.0 | 0.0 | 0.00 | 0.00 | 0.00 | 96 | 1010.8 |
| 20260509074150 | 12 | 263 | 0.0 | 0.0 | 0.00 | 0.00 | 0.00 | 96 | 1010.7 |
| 20260509073647 | 12 | 263 | 0.0 | 0.0 | 0.00 | 0.00 | 0.00 | 96 | 1010.7 |
| 20260509073143 | 12 | 263 | 0.0 | 0.0 | 0.00 | 0.00 | 0.00 | 96 | 1010.7 |
| 20260509072640 | 12 | 263 | 0.0 | 0.0 | 0.00 | 0.00 | 0.00 | 96 | 1010.6 |
| 20260509072132 | 12 | 264 | 0.0 | 0.0 | 0.00 | 0.00 | 0.00 | 96 | 1010.7 |
| 20260509071628 | 12 | 264 | 0.0 | 0.0 | 0.00 | 0.00 | 0.00 | 96 | 1010.8 |
| 20260509071126 | 12 | 263 | 0.0 | 0.0 | 0.00 | 0.00 | 0.00 | 96 | 1010.8 |
| 20260509070622 | 12 | 263 | 0.0 | 0.0 | 0.00 | 0.00 | 0.00 | 96 | 1010.8 |
| 20260509070118 | 12 | 263 | 0.0 | 0.0 | 0.00 | 0.00 | 0.00 | 95 | 1010.7 |
| 20260509065614 | 12 | 263 | 0.0 | 0.0 | 0.00 | 0.00 | 0.00 | 95 | 1010.5 |
| 20260509065110 | 12 | 263 | 0.0 | 0.0 | 0.00 | 0.00 | 0.00 | 95 | 1010.5 |
| 20260509064607 | 12 | 263 | 0.0 | 0.0 | 0.00 | 0.00 | 0.00 | 95 | 1010.7 |
| 20260509064106 | 12 | 263 | 0.0 | 0.0 | 0.00 | 0.00 | 0.00 | 95 | 1010.5 |
| 20260509063601 | 12 | 264 | 0.0 | 0.0 | 0.00 | 0.00 | 0.00 | 95 | 1010.6 |
| 20260509063059 | 13 | 263 | 0.0 | 0.0 | 0.00 | 0.00 | 0.00 | 95 | 1010.7 |
| 20260509062555 | 12 | 263 | 0.0 | 0.0 | 0.00 | 0.00 | 0.00 | 95 | 1010.7 |
| 20260509062053 | 13 | 263 | 0.0 | 0.0 | 0.00 | 0.00 | 0.00 | 95 | 1010.7 |
| 20260509061549 | 13 | 263 | 0.0 | 0.0 | 0.00 | 0.00 | 0.00 | 95 | 1010.6 |
| 20260509061047 | 13 | 289 | 0.0 | 0.0 | 0.00 | 0.00 | 0.00 | 94 | 1010.7 |
| 20260509060545 | 13 | 359 | 0.0 | 1.6 | 0.00 | 0.00 | 0.00 | 94 | 1010.6 |
| 20260509060035 | 13 | 29 | 0.0 | 0.0 | 0.00 | 0.00 | 0.00 | 94 | 1010.6 |
| 20260509055531 | 13 | 354 | 3.2 | 4.8 | 0.00 | 0.00 | 0.00 | 93 | 1010.5 |
| 20260509055027 | 13 | 12 | 0.0 | 1.6 | 0.00 | 0.00 | 0.00 | 93 | 1010.6 |
| 20260509054523 | 13 | 331 | 6.4 | 9.7 | 0.00 | 0.00 | 0.00 | 93 | 1010.7 |
| 20260509054021 | 13 | 5 | 4.8 | 6.4 | 0.00 | 0.00 | 0.00 | 93 | 1010.6 |
| 20260509053519 | 13 | 18 | 4.8 | 6.4 | 0.00 | 0.00 | 0.00 | 93 | 1010.5 |
| 20260509053016 | 13 | 358 | 8.0 | 11.3 | 0.00 | 0.00 | 0.00 | 92 | 1010.7 |
| 20260509052514 | 13 | 13 | 3.2 | 4.8 | 0.00 | 0.00 | 0.00 | 91 | 1010.6 |
| 20260509052012 | 13 | 17 | 3.2 | 3.2 | 0.00 | 0.00 | 0.00 | 90 | 1010.5 |
| 20260509051510 | 14 | 47 | 1.6 | 3.2 | 0.00 | 0.00 | 0.00 | 89 | 1010.5 |
| 20260509051007 | 14 | 119 | 0.0 | 0.0 | 0.00 | 0.00 | 0.00 | 89 | 1010.5 |
| 20260509050503 | 13 | 65 | 3.2 | 3.2 | 0.00 | 0.00 | 0.00 | 91 | 1010.4 |
| 20260509050000 | 13 | 349 | 1.6 | 3.2 | 0.00 | 0.00 | 0.00 | 93 | 1010.4 |
| 20260509045457 | 13 | 327 | 0.0 | 0.0 | 0.00 | 0.00 | 0.00 | 92 | 1010.4 |